Flag for Qatar Weather past 2 weeks in Al-Jamiliyah, Qatar

Now
78 °F

Sunny.


Feels Like: 78 °F
Forecast: 65 / 79 °F
Wind: 10 mph from Southeast

Location: Al Udeid

Current Time: Jan 28, 2015 at 3:30:11 PM

Latest Report: Jan 28, 2015 at 2:58 PM


Visibility: N/A

Pressure: 29.98 "Hg

Humidity: 38%

Dew point: 50 °F

Location of Al-JamiliyahLocation

Historic Weather in Al-Jamiliyah — Graph

°F

Al-Jamiliyah temperature yesterday

Maximum temperature yesterday: 75 °F (at 2:58 PM)
Minimum temperature yesterday: 50 °F (at 6:55 AM)
Average temperature yesterday: 62 °F

Past Weeks' High & Low Weather Summary

 TemperatureHumidityPressure
High78 °F (Jan 28, 1:58 PM)100% (Jan 17, 2:58 AM)30.30 "Hg (Jan 17, 2:58 AM)
Low45 °F (Jan 21, 3:58 AM)20% (Jan 24, 3:58 PM)29.97 "Hg (Jan 18, 2:58 PM)
Average60 °F67%30.15 "Hg
* Reported Jan 13 1:58 PM — Jan 28 1:58 PM, Al-Jamiliyah, Weather by CustomWeather, © 2014

Note: Actual official high and low records may vary slightly from our data, if they occured in-between our weather recording intervals... More about our weather records

Advertising

Al-Jamiliyah weather history for previous 24 hours

 ConditionsComfort  
Time TempWeatherWind HumidityBarometerVisibility
1:58 PM
Jan 28
78 °FClear.9 mph36%29.99 "HgN/A
12:58 PM77 °FClear.10 mph38%30.02 "HgN/A
11:58 AM76 °FClear.13 mph42%30.06 "HgN/A
10:58 AM72 °FClear.10 mph56%30.09 "HgN/A
9:58 AM63 °FPassing clouds.8 mph100%30.11 "HgN/A
8:58 AM61 °FFog.6 mph100%30.11 "Hg1 mi
8:51 AM61 °FFog.7 mph100%30.11 "Hg0 mi
7:58 AM58 °FFog.5 mph100%30.11 "Hg0 mi
6:58 AM58 °FFog.3 mph100%30.09 "Hg0 mi
5:58 AM57 °FFog.5 mph100%30.08 "Hg0 mi
4:58 AM57 °FFog.3 mph100%30.06 "Hg0 mi
3:58 AM56 °FDense fog.1 mph100%30.04 "Hg0 mi
2:59 AM55 °FDense fog.5 mph100%30.06 "Hg0 mi
1:58 AM55 °FFog.5 mph92%30.06 "Hg6 mi
12:58 AM56 °FSunny.5 mph91%30.09 "HgN/A
11:58 PM
Jan 27
58 °FSunny.1 mph91%30.09 "HgN/A
10:58 PM60 °FSunny.6 mph85%30.11 "HgN/A
9:58 PM61 °FSunny.6 mph81%30.13 "HgN/A
8:58 PM62 °FSunny.6 mph76%30.13 "HgN/A
7:58 PM64 °FSunny.8 mph69%30.11 "HgN/A
6:58 PM66 °FSunny.6 mph62%30.11 "HgN/A
5:58 PM68 °FSunny.9 mph55%30.09 "HgN/A
4:58 PM73 °FSunny.10 mph44%30.09 "HgN/A
3:58 PM75 °FSunny.5 mph40%30.09 "HgN/A
Weather by CustomWeather, © 2014

See weather overviewHow to use our weather pages